User: anonymous   Login
Location: Wallasey
(53.4265°N, 3.0662°W)
Time: 17:03:15
(UTC+01:00)
Language:

NOAA 18 - Orbit

View from above orbital plane
View from above orbital plane
View from above satellite
View from above satellite

Ground track
Ground track

The orbit data is extracted from the following two-line orbital elements,

1 28654U 05018A   19266.47237481  .00000059  00000-0  57161-4 0  9997
2 28654  99.0863 314.8469 0013306 264.8674  95.0978 14.12453470739173
Epoch (UTC): 23 September 2019 11:20:13
Eccentricity: 0.0013306
inclination: 99.0863°
perigee height: 841 km
apogee height: 860 km
right ascension of ascending node: 314.8469°
argument of perigee: 264.8674°
revolutions per day: 14.12453470
mean anomaly at epoch: 95.0978°
orbit number at epoch: 73917

The dashed part of the orbit path shows where the satellite is in the earth's shadow,  

DLR